Mojave, CA

1:30 AM PST on November 19, 2017 (GMT -0800)
Mojave

Weather History for KMHV - February, 2014

Change the Weather History Date:

Monday, February 10, 2014

  Actual Average Record
Temperature  
Mean Temperature 58 °F -  
Max Temperature 64 °F 58 °F 75 °F (2006)
Min Temperature 51 °F 35 °F 24 °F (1965)
Degree Days  
Heating Degree Days 8    
Growing Degree Days 8 (Base 50)    
Moisture  
Dew Point 41 °F    
Average Humidity 57    
Maximum Humidity 77    
Minimum Humidity 37    
Precipitation  
Precipitation 0.00 in - - ()
Sea Level Pressure  
Sea Level Pressure 30.10 in    
Wind  
Wind Speed 23 mph (West)    
Max Wind Speed 34 mph    
Max Gust Speed 41 mph    
Visibility 10 miles    
Events      
Averages and records for this station are not official NWS values.
T = Trace of Precipitation, MM = Missing Value Source: NWS Daily Summary

Daily Weather History Graph

Daily Weather History Graph

Search for Another Location

Airport or City:

Trip Planner

Search our weather history database for the weather conditions in past years. The results will help you decide how hot, cold, wet, or windy it might be!

Date:

Astronomy

Feb. 10, 2014 Rise Set
Actual Time 6:43 AM PST 5:30 PM PST
Civil Twilight 6:17 AM PST 5:56 PM PST
Nautical Twilight 5:47 AM PST 6:26 PM PST
Astronomical Twilight 5:18 AM PST 6:56 PM PST
Moon 2:07 PM PST (2/10) 3:36 AM PST (2/10)
Length of Visible Light 11h 39m
Length of Day
10h 46m
Waxing Gibbous, 85% of the Moon is Illuminated
Feb 10
Waxing Gibbous
Feb 14
Full
Feb 22
Last Quarter
Mar 1
New
Mar 8
First Quarter

Hourly Weather History & Observations

Time (PST) Temp. Dew Point Humidity Pressure Visibility Wind Dir Wind Speed Gust Speed Precip Events Conditions
12:15 AM 53.6 °F 41.0 °F 62% 30.10 in 10.0 mi WSW 21.9 mph 28.8 mph N/A   Clear
12:35 AM 51.8 °F 42.8 °F 71% 30.10 in 10.0 mi WSW 20.7 mph - N/A   Clear
12:55 AM 51.8 °F 41.0 °F 67% 30.09 in 10.0 mi WSW 17.3 mph 24.2 mph N/A   Clear
1:15 AM 53.6 °F 41.0 °F 62% 30.09 in 10.0 mi WSW 18.4 mph 28.8 mph N/A   Clear
1:35 AM 53.6 °F 41.0 °F 62% 30.10 in 10.0 mi WSW 18.4 mph 24.2 mph N/A   Clear
1:55 AM 51.8 °F 41.0 °F 67% 30.09 in 10.0 mi WSW 23.0 mph 28.8 mph N/A   Clear
2:15 AM 53.6 °F 41.0 °F 62% 30.09 in 10.0 mi WSW 20.7 mph 28.8 mph N/A   Clear
2:35 AM 53.6 °F 39.2 °F 58% 30.09 in 10.0 mi WSW 25.3 mph 32.2 mph N/A   Clear
2:55 AM 53.6 °F 39.2 °F 58% 30.08 in 10.0 mi WSW 27.6 mph 32.2 mph N/A   Clear
3:15 AM 53.6 °F 39.2 °F 58% 30.08 in 10.0 mi WSW 28.8 mph 34.5 mph N/A   Clear
3:35 AM 53.6 °F 39.2 °F 58% 30.08 in 10.0 mi WSW 26.5 mph 31.1 mph N/A   Clear
3:55 AM 53.6 °F 39.2 °F 58% 30.08 in 10.0 mi WSW 26.5 mph 31.1 mph N/A   Clear
4:15 AM 53.6 °F 41.0 °F 62% 30.08 in 10.0 mi WSW 26.5 mph 33.4 mph N/A   Clear
4:35 AM 53.6 °F 41.0 °F 62% 30.09 in 10.0 mi WSW 25.3 mph 34.5 mph N/A   Clear
4:55 AM 53.6 °F 42.8 °F 67% 30.09 in 10.0 mi WSW 24.2 mph 28.8 mph N/A   Partly Cloudy
5:15 AM 53.6 °F 44.6 °F 72% 30.09 in 10.0 mi WSW 23.0 mph 27.6 mph N/A   Scattered Clouds
5:35 AM 51.8 °F 44.6 °F 76% 30.09 in 10.0 mi WSW 23.0 mph 28.8 mph N/A   Scattered Clouds
5:55 AM 51.8 °F 44.6 °F 76% 30.09 in 10.0 mi SW 24.2 mph 35.7 mph N/A   Partly Cloudy
6:15 AM 53.6 °F 44.6 °F 72% 30.10 in 10.0 mi WSW 19.6 mph 28.8 mph N/A   Scattered Clouds
6:35 AM 53.6 °F 44.6 °F 72% 30.11 in 10.0 mi WSW 17.3 mph - N/A   Overcast
6:55 AM 53.6 °F 46.4 °F 77% 30.12 in 10.0 mi WSW 12.7 mph 19.6 mph N/A   Overcast
7:15 AM 53.6 °F 46.4 °F 77% 30.13 in 10.0 mi WSW 18.4 mph 23.0 mph N/A   Overcast
7:35 AM 55.4 °F 44.6 °F 67% 30.14 in 10.0 mi WSW 16.1 mph - N/A   Overcast
7:55 AM 55.4 °F 44.6 °F 67% 30.14 in 10.0 mi WSW 13.8 mph - N/A   Mostly Cloudy
8:15 AM 57.2 °F 42.8 °F 59% 30.15 in 10.0 mi West 16.1 mph 21.9 mph N/A   Partly Cloudy
8:35 AM 57.2 °F 42.8 °F 59% 30.17 in 10.0 mi WSW 16.1 mph 21.9 mph N/A   Scattered Clouds
8:55 AM 55.4 °F 42.8 °F 63% 30.16 in 10.0 mi West 19.6 mph - N/A   Scattered Clouds
9:15 AM 57.2 °F 41.0 °F 55% 30.15 in 10.0 mi West 23.0 mph - N/A   Clear
9:35 AM 57.2 °F 41.0 °F 55% 30.16 in 10.0 mi West 17.3 mph 25.3 mph N/A   Clear
9:55 AM 59.0 °F 42.8 °F 55% 30.17 in 10.0 mi West 20.7 mph 24.2 mph N/A   Clear
10:15 AM 59.0 °F 41.0 °F 51% 30.17 in 10.0 mi West 21.9 mph - N/A   Clear
10:35 AM 60.8 °F 39.2 °F 45% 30.17 in 10.0 mi West 21.9 mph 28.8 mph N/A   Clear
10:55 AM 60.8 °F 39.2 °F 45% 30.15 in 10.0 mi West 26.5 mph 32.2 mph N/A   Clear
11:15 AM 60.8 °F 39.2 °F 45% 30.14 in 10.0 mi West 27.6 mph 33.4 mph N/A   Clear
11:35 AM 60.8 °F 39.2 °F 45% 30.12 in 10.0 mi West 27.6 mph - N/A   Clear
11:55 AM 62.6 °F 39.2 °F 42% 30.11 in 10.0 mi West 28.8 mph 35.7 mph N/A   Clear
12:15 PM 62.6 °F 39.2 °F 42% 30.10 in 10.0 mi West 27.6 mph 34.5 mph N/A   Clear
12:35 PM 62.6 °F 39.2 °F 42% 30.10 in 10.0 mi West 27.6 mph 34.5 mph N/A   Clear
12:55 PM 62.6 °F 39.2 °F 42% 30.08 in 10.0 mi West 20.7 mph 34.5 mph N/A   Clear
1:15 PM 64.4 °F 37.4 °F 37% 30.08 in 10.0 mi West 20.7 mph 27.6 mph N/A   Clear
1:35 PM 64.4 °F 39.2 °F 40% 30.07 in 10.0 mi West 26.5 mph 32.2 mph N/A   Clear
1:55 PM 64.4 °F 39.2 °F 40% 30.06 in 10.0 mi West 26.5 mph 32.2 mph N/A   Clear
2:15 PM 64.4 °F 39.2 °F 40% 30.06 in 10.0 mi WNW 27.6 mph 35.7 mph N/A   Clear
2:35 PM 64.4 °F 39.2 °F 40% 30.06 in 10.0 mi West 29.9 mph 35.7 mph N/A   Clear
2:55 PM 62.6 °F 39.2 °F 42% 30.05 in 10.0 mi West 31.1 mph 40.3 mph N/A   Clear
3:15 PM 62.6 °F 39.2 °F 42% 30.05 in 10.0 mi West 31.1 mph 38.0 mph N/A   Clear
3:35 PM 62.6 °F 39.2 °F 42% 30.05 in 10.0 mi West 29.9 mph 35.7 mph N/A   Clear
3:55 PM 60.8 °F 39.2 °F 45% 30.06 in 10.0 mi West 27.6 mph 38.0 mph N/A   Clear
4:15 PM 59.0 °F 39.2 °F 48% 30.06 in 10.0 mi WNW 32.2 mph 36.8 mph N/A   Clear
4:35 PM 59.0 °F 39.2 °F 48% 30.06 in 10.0 mi West 28.8 mph 36.8 mph N/A   Clear
4:55 PM 57.2 °F 39.2 °F 51% 30.06 in 10.0 mi West 28.8 mph 34.5 mph N/A   Clear
5:15 PM 57.2 °F 39.2 °F 51% 30.06 in 10.0 mi West 27.6 mph 33.4 mph N/A   Unknown
5:35 PM 55.4 °F 41.0 °F 58% 30.06 in 10.0 mi West 29.9 mph 34.5 mph N/A   Clear
5:55 PM 55.4 °F 41.0 °F 58% 30.06 in 10.0 mi West 32.2 mph 40.3 mph N/A   Clear
6:15 PM 55.4 °F 41.0 °F 58% 30.07 in 10.0 mi West 28.8 mph 38.0 mph N/A   Clear
6:35 PM 55.4 °F 41.0 °F 58% 30.07 in 10.0 mi West 33.4 mph 38.0 mph N/A   Clear
6:55 PM 55.4 °F 41.0 °F 58% 30.08 in 10.0 mi West 33.4 mph 41.4 mph N/A   Clear
7:15 PM 55.4 °F 41.0 °F 58% 30.09 in 10.0 mi West 34.5 mph 40.3 mph N/A   Clear
7:35 PM 55.4 °F 41.0 °F 58% 30.10 in 10.0 mi West 31.1 mph 36.8 mph N/A   Clear
7:55 PM 55.4 °F 39.2 °F 54% 30.10 in 10.0 mi West 26.5 mph 34.5 mph N/A   Clear
8:15 PM 53.6 °F 39.2 °F 58% 30.11 in 10.0 mi West 25.3 mph 32.2 mph N/A   Clear
8:35 PM 53.6 °F 41.0 °F 62% 30.10 in 10.0 mi West 21.9 mph 29.9 mph N/A   Clear
8:55 PM 53.6 °F 41.0 °F 62% 30.11 in 10.0 mi West 21.9 mph 27.6 mph N/A   Clear
9:15 PM 53.6 °F 41.0 °F 62% 30.11 in 10.0 mi West 19.6 mph 27.6 mph N/A   Clear
9:35 PM 53.6 °F 41.0 °F 62% 30.13 in 10.0 mi West 24.2 mph 31.1 mph N/A   Unknown
9:55 PM 53.6 °F 41.0 °F 62% 30.13 in 10.0 mi West 20.7 mph 27.6 mph N/A   Clear
10:15 PM 53.6 °F 41.0 °F 62% 30.13 in 10.0 mi West 25.3 mph 32.2 mph N/A   Clear
10:35 PM 53.6 °F 41.0 °F 62% 30.14 in 10.0 mi West 26.5 mph 34.5 mph N/A   Clear
10:55 PM 53.6 °F 41.0 °F 62% 30.14 in 10.0 mi West 26.5 mph 34.5 mph N/A   Clear
11:15 PM 53.6 °F 41.0 °F 62% 30.14 in 10.0 mi West 24.2 mph 28.8 mph N/A   Clear
11:35 PM 53.6 °F 41.0 °F 62% 30.14 in 10.0 mi West 23.0 mph 28.8 mph N/A   Clear
11:55 PM 53.6 °F 41.0 °F 62% 30.14 in 10.0 mi West 21.9 mph 27.6 mph N/A   Clear